Regional Weather Roundup
Issued by NWS

Home | Current Version | Previous Version | Text Only | Print | Product List | Glossary On
Versions: 1 2 3 4 5 6 7 8 9 10 11 12 13 14 15 16 17 18 19 20 21 22 23 24 25 26 27 28 29 30 31 32 33 34 35 36 37 38 39 40 41 42 43 44 45 46 47 48 49
000
ASUS42 KKEY 022010
RWRKEY

FLORIDA REGIONAL WEATHER ROUNDUP FOR THE FLORIDA KEYS
NATIONAL WEATHER SERVICE KEY WEST FLORIDA
300 PM EST MON MAR 02 2015

...SOUTH FLORIDA AND THE KEYS...

CITY           SKY/WX    TMP DP  RH WIND       PRES   REMARKS
FORT MYERS     PTSUNNY   84  63  49 NE9       30.17F
SW REGIONAL AP PTSUNNY   84  61  45 NE12      30.17F
NAPLES         MOSUNNY   79  69  71 W10       30.18F
MIAMI          MOSUNNY   81  62  52 E10G18    30.18F
WEST KENDALL   SUNNY     80  63  55 SE10      30.18F
HOMESTEAD      SUNNY     79  65  61 E10       30.17F
MARATHON       SUNNY     80  69  69 E10       30.16F
BOCA CHICA NAS MOSUNNY   79  69  71 E16       30.16F
KEY WEST INTL  SUNNY     79  70  74 E14       30.17F

...INTERNATIONAL WEATHER...

CITY           SKY/WX    TMP DP  RH WIND       PRES   REMARKS
NASSAU BAHAMAS MOSUNNY   77  68  73 E10       30.19F
CANCUN MEXICO  PTSUNNY   82  73  74 E13       30.11F
COZUMEL MEXICO PTSUNNY   79  70  73 NE10      30.11F

ADJACENT COASTAL WATERS...

STATION/POSITION TIME  SKY/WX   TEMP    WIND        PRES    WAVE
                                AIR SEA DIR/SP/G            HT/PER
                 (UTC)          (F)     (DEG/KT/KT) (MB)    (FT/S)
PULASKI SHOAL LI 1900            72      70/ 10/ 11 1022.0F
SAND KEY         1950            75      90/ 12/ 14 1021.4F
SOMBRERO KEY     2000            76      90/ 13/ 13 1021.8F
LONG KEY         1900            76 78   70/  8/ 12 1022.8F
MOLASSES REEF    2000            75 78   80/ 12/ 13 1021.4F
FOWEY ROCKS      NOT AVBL
Buoy 42080       NOT AVBL

$$



USA.gov is the U.S. government's official web portal to all federal, state and local government web resources and services.